Time,TemperatureF,DewpointF,PressureIn,WindDirection,WindDirectionDegrees,WindSpeedMPH,WindSpeedGustMPH,Humidity,HourlyPrecipIn,Conditions,Clouds,dailyrainin,SoftwareType,DateUTC
2013-01-07 00:03:00,70.0,-99.9,30.14,NNW,345,9.0,10.0,-999,-99.99,,,-99.99,,2013-01-07 05:03:00,
2013-01-07 00:12:00,70.0,-99.9,30.14,North,351,7.0,8.0,-999,-99.99,,,-99.99,,2013-01-07 05:12:00,
2013-01-07 00:23:00,70.0,-99.9,30.14,NNE,29,3.0,7.0,-999,-99.99,,,-99.99,,2013-01-07 05:23:00,
2013-01-07 00:33:00,71.0,-99.9,30.14,NE,36,3.0,4.0,-999,-99.99,,,-99.99,,2013-01-07 05:33:00,
2013-01-07 00:43:00,71.0,-99.9,30.13,NNE,33,3.0,4.0,-999,-99.99,,,-99.99,,2013-01-07 05:43:00,
2013-01-07 00:53:00,71.0,-99.9,30.13,NNE,27,4.0,6.0,-999,-99.99,,,-99.99,,2013-01-07 05:53:00,
2013-01-07 01:02:00,71.0,-99.9,30.13,NNE,23,5.0,8.0,-999,-99.99,,,-99.99,,2013-01-07 06:02:00,
2013-01-07 01:12:00,71.0,-99.9,30.13,NNE,27,4.0,7.0,-999,-99.99,,,-99.99,,2013-01-07 06:12:00,
2013-01-07 01:22:00,71.0,-99.9,30.12,NE,36,5.0,8.0,-999,-99.99,,,-99.99,,2013-01-07 06:22:00,
2013-01-07 01:32:00,71.0,-99.9,30.12,NNE,29,6.0,8.0,-999,-99.99,,,-99.99,,2013-01-07 06:32:00,
2013-01-07 01:43:00,70.0,-99.9,30.12,NE,36,4.0,6.0,-999,-99.99,,,-99.99,,2013-01-07 06:43:00,
2013-01-07 01:52:00,70.0,-99.9,30.12,ENE,68,4.0,6.0,-999,-99.99,,,-99.99,,2013-01-07 06:52:00,
2013-01-07 02:02:00,70.0,-99.9,30.12,ENE,75,3.0,6.0,-999,-99.99,,,-99.99,,2013-01-07 07:02:00,
2013-01-07 02:12:00,70.0,-99.9,30.12,NE,54,3.0,5.0,-999,-99.99,,,-99.99,,2013-01-07 07:12:00,
2013-01-07 02:23:00,70.0,-99.9,30.11,NE,42,3.0,5.0,-999,-99.99,,,-99.99,,2013-01-07 07:23:00,
2013-01-07 02:33:00,70.0,-99.9,30.11,NNE,26,3.0,5.0,-999,-99.99,,,-99.99,,2013-01-07 07:33:00,
2013-01-07 02:43:00,70.0,-99.9,30.11,NE,44,4.0,6.0,-999,-99.99,,,-99.99,,2013-01-07 07:43:00,
2013-01-07 02:53:00,70.0,-99.9,30.11,NE,39,3.0,6.0,-999,-99.99,,,-99.99,,2013-01-07 07:53:00,
2013-01-07 03:03:00,70.0,-99.9,30.11,ENE,72,4.0,5.0,-999,-99.99,,,-99.99,,2013-01-07 08:03:00,
2013-01-07 03:12:00,70.0,-99.9,30.11,ENE,63,3.0,5.0,-999,-99.99,,,-99.99,,2013-01-07 08:12:00,
2013-01-07 03:22:00,70.0,-99.9,30.11,ENE,63,3.0,4.0,-999,-99.99,,,-99.99,,2013-01-07 08:22:00,
2013-01-07 03:33:00,70.0,-99.9,30.11,ENE,68,4.0,6.0,-999,-99.99,,,-99.99,,2013-01-07 08:33:00,
2013-01-07 03:43:00,70.0,-99.9,30.11,ENE,69,4.0,7.0,-999,-99.99,,,-99.99,,2013-01-07 08:43:00,
2013-01-07 03:53:00,70.0,-99.9,30.11,ENE,69,4.0,7.0,-999,-99.99,,,-99.99,,2013-01-07 08:53:00,
2013-01-07 04:02:00,70.0,-99.9,30.11,ENE,71,2.0,5.0,-999,-99.99,,,-99.99,,2013-01-07 09:02:00,
2013-01-07 04:12:00,70.0,-99.9,30.10,East,79,4.0,6.0,-999,-99.99,,,-99.99,,2013-01-07 09:12:00,
2013-01-07 04:23:00,70.0,-99.9,30.10,East,83,5.0,7.0,-999,-99.99,,,-99.99,,2013-01-07 09:23:00,
2013-01-07 04:32:00,70.0,-99.9,30.10,East,83,2.0,5.0,-999,-99.99,,,-99.99,,2013-01-07 09:32:00,
2013-01-07 04:43:00,70.0,-99.9,30.10,ENE,63,3.0,4.0,-999,-99.99,,,-99.99,,2013-01-07 09:43:00,
2013-01-07 04:53:00,70.0,-99.9,30.10,ENE,75,3.0,7.0,-999,-99.99,,,-99.99,,2013-01-07 09:53:00,
2013-01-07 05:02:00,70.0,-99.9,30.10,ENE,76,3.0,4.0,-999,-99.99,,,-99.99,,2013-01-07 10:02:00,
2013-01-07 05:12:00,70.0,-99.9,30.10,ESE,107,3.0,4.0,-999,-99.99,,,-99.99,,2013-01-07 10:12:00,
2013-01-07 05:23:00,70.0,-99.9,30.11,ESE,111,2.0,4.0,-999,-99.99,,,-99.99,,2013-01-07 10:23:00,
2013-01-07 05:33:00,70.0,-99.9,30.11,ESE,115,3.0,4.0,-999,-99.99,,,-99.99,,2013-01-07 10:33:00,
2013-01-07 05:43:00,70.0,-99.9,30.11,ESE,118,4.0,5.0,-999,-99.99,,,-99.99,,2013-01-07 10:43:00,
2013-01-07 05:53:00,70.0,-99.9,30.11,ESE,114,5.0,7.0,-999,-99.99,,,-99.99,,2013-01-07 10:53:00,
2013-01-07 06:02:00,70.0,-99.9,30.11,East,100,2.0,5.0,-999,-99.99,,,-99.99,,2013-01-07 11:02:00,
2013-01-07 06:12:00,70.0,-99.9,30.11,ENE,78,3.0,5.0,-999,-99.99,,,-99.99,,2013-01-07 11:12:00,
2013-01-07 06:23:00,70.0,-99.9,30.11,East,101,3.0,6.0,-999,-99.99,,,-99.99,,2013-01-07 11:23:00,
2013-01-07 06:33:00,70.0,-99.9,30.11,ESE,103,4.0,5.0,-999,-99.99,,,-99.99,,2013-01-07 11:33:00,
2013-01-07 06:43:00,70.0,-99.9,30.11,East,85,3.0,6.0,-999,-99.99,,,-99.99,,2013-01-07 11:43:00,
2013-01-07 06:53:00,70.0,-99.9,30.12,ESE,108,4.0,5.0,-999,-99.99,,,-99.99,,2013-01-07 11:53:00,
2013-01-07 07:03:00,70.0,-99.9,30.12,East,86,4.0,6.0,-999,-99.99,,,-99.99,,2013-01-07 12:03:00,
2013-01-07 07:13:00,70.0,-99.9,30.13,East,93,4.0,8.0,-999,-99.99,,,-99.99,,2013-01-07 12:13:00,
2013-01-07 07:23:00,70.0,-99.9,30.13,East,90,4.0,6.0,-999,-99.99,,,-99.99,,2013-01-07 12:23:00,
2013-01-07 07:33:00,70.0,-99.9,30.14,East,85,2.0,6.0,-999,-99.99,,,-99.99,,2013-01-07 12:33:00,
2013-01-07 07:43:00,70.0,-99.9,30.14,ENE,63,3.0,5.0,-999,-99.99,,,-99.99,,2013-01-07 12:43:00,
2013-01-07 07:53:00,70.0,-99.9,30.14,East,83,4.0,6.0,-999,-99.99,,,-99.99,,2013-01-07 12:53:00,
2013-01-07 08:03:00,70.0,-99.9,30.14,ENE,77,4.0,7.0,-999,-99.99,,,-99.99,,2013-01-07 13:03:00,
2013-01-07 08:12:00,70.0,-99.9,30.15,East,83,3.0,6.0,-999,-99.99,,,-99.99,,2013-01-07 13:12:00,
2013-01-07 08:23:00,70.0,-99.9,30.15,ENE,75,3.0,6.0,-999,-99.99,,,-99.99,,2013-01-07 13:23:00,
2013-01-07 08:33:00,69.0,-99.9,30.15,East,82,5.0,8.0,-999,-99.99,,,-99.99,,2013-01-07 13:33:00,
2013-01-07 08:43:00,69.0,-99.9,30.16,ENE,78,4.0,6.0,-999,-99.99,,,-99.99,,2013-01-07 13:43:00,
2013-01-07 08:53:00,70.0,-99.9,30.15,ENE,69,4.0,6.0,-999,-99.99,,,-99.99,,2013-01-07 13:53:00,
2013-01-07 09:03:00,70.0,-99.9,30.16,ENE,66,6.0,9.0,-999,-99.99,,,-99.99,,2013-01-07 14:03:00,
2013-01-07 09:13:00,70.0,-99.9,30.16,ENE,70,4.0,7.0,-999,-99.99,,,-99.99,,2013-01-07 14:13:00,
2013-01-07 09:23:00,70.0,-99.9,30.17,ENE,78,6.0,8.0,-999,-99.99,,,-99.99,,2013-01-07 14:23:00,
2013-01-07 09:33:00,71.0,-99.9,30.17,East,82,7.0,10.0,-999,-99.99,,,-99.99,,2013-01-07 14:33:00,
2013-01-07 09:43:00,71.0,-99.9,30.17,East,79,4.0,9.0,-999,-99.99,,,-99.99,,2013-01-07 14:43:00,
2013-01-07 09:53:00,71.0,-99.9,30.18,ENE,76,5.0,9.0,-999,-99.99,,,-99.99,,2013-01-07 14:53:00,
2013-01-07 10:03:00,71.0,-99.9,30.18,ENE,64,6.0,8.0,-999,-99.99,,,-99.99,,2013-01-07 15:03:00,
2013-01-07 10:12:00,72.0,-99.9,30.18,East,81,6.0,9.0,-999,-99.99,,,-99.99,,2013-01-07 15:12:00,
2013-01-07 10:23:00,73.0,-99.9,30.18,ENE,75,5.0,8.0,-999,-99.99,,,-99.99,,2013-01-07 15:23:00,
2013-01-07 10:33:00,74.0,-99.9,30.18,ESE,103,5.0,9.0,-999,-99.99,,,-99.99,,2013-01-07 15:33:00,
2013-01-07 10:43:00,75.0,-99.9,30.17,ENE,76,8.0,11.0,-999,-99.99,,,-99.99,,2013-01-07 15:43:00,
2013-01-07 10:53:00,75.0,-99.9,30.17,ENE,72,6.0,12.0,-999,-99.99,,,-99.99,,2013-01-07 15:53:00,
2013-01-07 11:03:00,74.0,-99.9,30.18,East,84,7.0,11.0,-999,-99.99,,,-99.99,,2013-01-07 16:03:00,
2013-01-07 11:12:00,75.0,-99.9,30.17,ENE,69,7.0,12.0,-999,-99.99,,,-99.99,,2013-01-07 16:12:00,
2013-01-07 11:23:00,76.0,-99.9,30.17,East,81,5.0,11.0,-999,-99.99,,,-99.99,,2013-01-07 16:23:00,
2013-01-07 11:33:00,75.0,-99.9,30.17,East,91,7.0,11.0,-999,-99.99,,,-99.99,,2013-01-07 16:33:00,
2013-01-07 11:43:00,76.0,-99.9,30.16,ENE,59,6.0,9.0,-999,-99.99,,,-99.99,,2013-01-07 16:43:00,
2013-01-07 11:53:00,76.0,-99.9,30.16,ENE,58,4.0,8.0,-999,-99.99,,,-99.99,,2013-01-07 16:53:00,
2013-01-07 12:03:00,76.0,-99.9,30.16,NNE,32,5.0,9.0,-999,-99.99,,,-99.99,,2013-01-07 17:03:00,
2013-01-07 12:12:00,77.0,-99.9,30.15,ENE,59,6.0,9.0,-999,-99.99,,,-99.99,,2013-01-07 17:12:00,
2013-01-07 12:23:00,75.0,-99.9,30.14,NNE,16,8.0,12.0,-999,-99.99,,,-99.99,,2013-01-07 17:23:00,
2013-01-07 12:33:00,76.0,-99.9,30.14,NE,55,4.0,7.0,-999,-99.99,,,-99.99,,2013-01-07 17:33:00,
2013-01-07 12:43:00,76.0,-99.9,30.14,NNE,19,6.0,8.0,-999,-99.99,,,-99.99,,2013-01-07 17:43:00,
2013-01-07 12:53:00,76.0,-99.9,30.13,NE,44,6.0,10.0,-999,-99.99,,,-99.99,,2013-01-07 17:53:00,
2013-01-07 13:03:00,76.0,-99.9,30.12,East,81,7.0,11.0,-999,-99.99,,,-99.99,,2013-01-07 18:03:00,
2013-01-07 13:13:00,77.0,-99.9,30.11,ENE,77,6.0,11.0,-999,-99.99,,,-99.99,,2013-01-07 18:13:00,
2013-01-07 13:24:00,77.0,-99.9,30.11,NE,51,6.0,11.0,-999,-99.99,,,-99.99,,2013-01-07 18:24:00,
2013-01-07 13:33:00,77.0,-99.9,30.10,NE,51,8.0,11.0,-999,-99.99,,,-99.99,,2013-01-07 18:33:00,
2013-01-07 13:43:00,75.0,-99.9,30.10,East,90,10.0,14.0,-999,-99.99,,,-99.99,,2013-01-07 18:43:00,
2013-01-07 13:53:00,76.0,-99.9,30.10,East,101,6.0,13.0,-999,-99.99,,,-99.99,,2013-01-07 18:53:00,
2013-01-07 14:03:00,76.0,-99.9,30.10,East,88,8.0,13.0,-999,-99.99,,,-99.99,,2013-01-07 19:03:00,
2013-01-07 14:12:00,76.0,-99.9,30.10,East,95,6.0,12.0,-999,-99.99,,,-99.99,,2013-01-07 19:12:00,
2013-01-07 14:23:00,77.0,-99.9,30.10,ENE,65,6.0,11.0,-999,-99.99,,,-99.99,,2013-01-07 19:23:00,
2013-01-07 14:33:00,77.0,-99.9,30.10,ESE,113,8.0,11.0,-999,-99.99,,,-99.99,,2013-01-07 19:33:00,
2013-01-07 14:43:00,77.0,-99.9,30.10,ENE,67,6.0,11.0,-999,-99.99,,,-99.99,,2013-01-07 19:43:00,
2013-01-07 14:53:00,77.0,-99.9,30.10,ENE,60,7.0,9.0,-999,-99.99,,,-99.99,,2013-01-07 19:53:00,
2013-01-07 15:03:00,76.0,-99.9,30.10,NE,48,9.0,13.0,-999,-99.99,,,-99.99,,2013-01-07 20:03:00,
2013-01-07 15:13:00,76.0,-99.9,30.11,ENE,62,7.0,13.0,-999,-99.99,,,-99.99,,2013-01-07 20:13:00,
2013-01-07 15:23:00,76.0,-99.9,30.10,NE,42,7.0,9.0,-999,-99.99,,,-99.99,,2013-01-07 20:23:00,
2013-01-07 15:33:00,76.0,-99.9,30.10,ENE,71,9.0,13.0,-999,-99.99,,,-99.99,,2013-01-07 20:33:00,
2013-01-07 15:43:00,77.0,-99.9,30.10,ENE,75,5.0,8.0,-999,-99.99,,,-99.99,,2013-01-07 20:43:00,
2013-01-07 15:53:00,77.0,-99.9,30.09,NNE,27,6.0,10.0,-999,-99.99,,,-99.99,,2013-01-07 20:53:00,
2013-01-07 16:03:00,76.0,-99.9,30.10,ENE,57,7.0,12.0,-999,-99.99,,,-99.99,,2013-01-07 21:03:00,
2013-01-07 16:12:00,77.0,-99.9,30.10,ENE,65,6.0,15.0,-999,-99.99,,,-99.99,,2013-01-07 21:12:00,
2013-01-07 16:23:00,77.0,-99.9,30.10,NE,48,6.0,10.0,-999,-99.99,,,-99.99,,2013-01-07 21:23:00,
2013-01-07 16:33:00,77.0,-99.9,30.10,ENE,68,5.0,8.0,-999,-99.99,,,-99.99,,2013-01-07 21:33:00,
2013-01-07 16:43:00,77.0,-99.9,30.10,NE,52,8.0,14.0,-999,-99.99,,,-99.99,,2013-01-07 21:43:00,
2013-01-07 16:53:00,76.0,-99.9,30.11,ENE,57,8.0,13.0,-999,-99.99,,,-99.99,,2013-01-07 21:53:00,
2013-01-07 17:03:00,76.0,-99.9,30.11,ENE,57,9.0,13.0,-999,-99.99,,,-99.99,,2013-01-07 22:03:00,
2013-01-07 17:12:00,77.0,-99.9,30.11,ENE,62,5.0,9.0,-999,-99.99,,,-99.99,,2013-01-07 22:12:00,
2013-01-07 17:23:00,76.0,-99.9,30.11,ENE,61,6.0,13.0,-999,-99.99,,,-99.99,,2013-01-07 22:23:00,
2013-01-07 17:33:00,76.0,-99.9,30.11,ENE,64,7.0,13.0,-999,-99.99,,,-99.99,,2013-01-07 22:33:00,
2013-01-07 17:43:00,75.0,-99.9,30.12,NE,34,7.0,13.0,-999,-99.99,,,-99.99,,2013-01-07 22:43:00,
2013-01-07 17:53:00,75.0,-99.9,30.12,NE,48,5.0,12.0,-999,-99.99,,,-99.99,,2013-01-07 22:53:00,
2013-01-07 18:03:00,75.0,-99.9,30.12,NNE,32,5.0,11.0,-999,-99.99,,,-99.99,,2013-01-07 23:03:00,
2013-01-07 18:12:00,74.0,-99.9,30.13,NNE,33,4.0,8.0,-999,-99.99,,,-99.99,,2013-01-07 23:12:00,
2013-01-07 18:23:00,74.0,-99.9,30.13,NE,44,6.0,9.0,-999,-99.99,,,-99.99,,2013-01-07 23:23:00,
2013-01-07 18:33:00,74.0,-99.9,30.13,NE,50,4.0,8.0,-999,-99.99,,,-99.99,,2013-01-07 23:33:00,
2013-01-07 18:43:00,74.0,-99.9,30.14,NE,37,4.0,9.0,-999,-99.99,,,-99.99,,2013-01-07 23:43:00,
2013-01-07 18:53:00,74.0,-99.9,30.14,NE,36,4.0,7.0,-999,-99.99,,,-99.99,,2013-01-07 23:53:00,
2013-01-07 19:03:00,74.0,-99.9,30.14,NE,49,6.0,9.0,-999,-99.99,,,-99.99,,2013-01-08 00:03:00,
2013-01-07 19:13:00,74.0,-99.9,30.14,ENE,61,8.0,12.0,-999,-99.99,,,-99.99,,2013-01-08 00:13:00,
2013-01-07 19:23:00,73.0,-99.9,30.14,NE,53,5.0,13.0,-999,-99.99,,,-99.99,,2013-01-08 00:23:00,
2013-01-07 19:33:00,73.0,-99.9,30.15,NE,55,7.0,14.0,-999,-99.99,,,-99.99,,2013-01-08 00:33:00,
2013-01-07 19:43:00,73.0,-99.9,30.15,NE,42,4.0,11.0,-999,-99.99,,,-99.99,,2013-01-08 00:43:00,
2013-01-07 19:53:00,73.0,-99.9,30.15,NE,50,6.0,10.0,-999,-99.99,,,-99.99,,2013-01-08 00:53:00,
2013-01-07 20:03:00,73.0,-99.9,30.15,ENE,60,8.0,11.0,-999,-99.99,,,-99.99,,2013-01-08 01:03:00,
2013-01-07 20:12:00,72.0,-99.9,30.16,ENE,60,5.0,12.0,-999,-99.99,,,-99.99,,2013-01-08 01:12:00,
2013-01-07 20:22:00,72.0,-99.9,30.16,NE,53,6.0,11.0,-999,-99.99,,,-99.99,,2013-01-08 01:22:00,
2013-01-07 20:33:00,72.0,-99.9,30.16,NE,53,10.0,14.0,-999,-99.99,,,-99.99,,2013-01-08 01:33:00,
2013-01-07 20:42:00,72.0,-99.9,30.16,ENE,61,7.0,12.0,-999,-99.99,,,-99.99,,2013-01-08 01:42:00,
2013-01-07 20:53:00,71.0,-99.9,30.16,ENE,60,9.0,13.0,-999,-99.99,,,-99.99,,2013-01-08 01:53:00,
2013-01-07 21:02:00,71.0,-99.9,30.16,NE,55,10.0,14.0,-999,-99.99,,,-99.99,,2013-01-08 02:02:00,
2013-01-07 21:12:00,71.0,-99.9,30.16,NE,48,6.0,10.0,-999,-99.99,,,-99.99,,2013-01-08 02:12:00,
2013-01-07 21:23:00,71.0,-99.9,30.16,ENE,61,8.0,12.0,-999,-99.99,,,-99.99,,2013-01-08 02:23:00,
2013-01-07 21:33:00,70.0,-99.9,30.16,ENE,58,9.0,12.0,-999,-99.99,,,-99.99,,2013-01-08 02:33:00,
2013-01-07 21:43:00,70.0,-99.9,30.16,ENE,62,8.0,12.0,-999,-99.99,,,-99.99,,2013-01-08 02:43:00,
2013-01-07 21:53:00,70.0,-99.9,30.15,ENE,62,6.0,13.0,-999,-99.99,,,-99.99,,2013-01-08 02:53:00,
2013-01-07 22:03:00,70.0,-99.9,30.15,NE,54,8.0,14.0,-999,-99.99,,,-99.99,,2013-01-08 03:03:00,
2013-01-07 22:12:00,70.0,-99.9,30.16,ENE,59,7.0,10.0,-999,-99.99,,,-99.99,,2013-01-08 03:12:00,
2013-01-07 22:22:00,70.0,-99.9,30.16,NE,55,6.0,10.0,-999,-99.99,,,-99.99,,2013-01-08 03:22:00,
2013-01-07 22:33:00,70.0,-99.9,30.16,ENE,60,8.0,11.0,-999,-99.99,,,-99.99,,2013-01-08 03:33:00,
2013-01-07 22:43:00,69.0,-99.9,30.16,ENE,63,6.0,11.0,-999,-99.99,,,-99.99,,2013-01-08 03:43:00,
2013-01-07 22:53:00,69.0,-99.9,30.15,NE,54,8.0,12.0,-999,-99.99,,,-99.99,,2013-01-08 03:53:00,
2013-01-07 23:02:00,69.0,-99.9,30.15,ENE,57,7.0,12.0,-999,-99.99,,,-99.99,,2013-01-08 04:02:00,
2013-01-07 23:12:00,69.0,-99.9,30.15,NE,56,7.0,11.0,-999,-99.99,,,-99.99,,2013-01-08 04:12:00,
2013-01-07 23:22:00,69.0,-99.9,30.15,ENE,62,8.0,11.0,-999,-99.99,,,-99.99,,2013-01-08 04:22:00,
2013-01-07 23:33:00,69.0,-99.9,30.15,ENE,59,6.0,9.0,-999,-99.99,,,-99.99,,2013-01-08 04:33:00,
2013-01-07 23:43:00,69.0,-99.9,30.15,ENE,57,6.0,10.0,-999,-99.99,,,-99.99,,2013-01-08 04:43:00,
2013-01-07 23:52:00,69.0,-99.9,30.15,ENE,67,7.0,11.0,-999,-99.99,,,-99.99,,2013-01-08 04:52:00,